Eglinton, United Kingdom

7:23 PM BST on May 26, 2017 (GMT +0100)
Eglinton

Weather History for EGAE - December, 2012

Change the Weather History Date:

Saturday, December 8, 2012

  Actual Average Record
Temperature  
Mean Temperature 44 °F -  
Max Temperature 50 °F 46 °F 55 °F (2013)
Min Temperature 37 °F 40 °F 24 °F (2010)
Degree Days  
Heating Degree Days 22    
Moisture  
Dew Point 43 °F    
Average Humidity 90    
Maximum Humidity 94    
Minimum Humidity 87    
Precipitation  
Precipitation 0.00 in - - ()
Sea Level Pressure  
Sea Level Pressure 30.21 in    
Wind  
Wind Speed 11 mph ()    
Max Wind Speed 21 mph    
Max Gust Speed -    
Visibility 5.9 miles    
Events Rain    
Averages and records for this station are not official NWS values.
T = Trace of Precipitation, MM = Missing Value Source: Averaged Metar Reports

Daily Weather History Graph

Daily Weather History Graph

Search for Another Location

Airport or City:

Trip Planner

Search our weather history database for the weather conditions in past years. The results will help you decide how hot, cold, wet, or windy it might be!

Date:

Astronomy

Dec. 08, 2012 Rise Set
Actual Time 8:40 AM GMT 4:00 PM GMT
Civil Twilight 7:55 AM GMT 4:45 PM GMT
Nautical Twilight 7:08 AM GMT 5:32 PM GMT
Astronomical Twilight 6:24 AM GMT 6:17 PM GMT
Moon 2:01 AM GMT (12/8) 1:06 PM GMT (12/8)
Length of Visible Light 8h 50m
Length of Day
7h 20m
Waning Crescent, 30% of the Moon is Illuminated
Dec 8
Waning Crescent
Dec 13
New
Dec 20
First Quarter
Dec 28
Full
Jan 5
Last Quarter

Hourly Weather History & Observations

Time (GMT) Temp. Windchill Dew Point Humidity Pressure Visibility Wind Dir Wind Speed Gust Speed Precip Events Conditions
5:50 AM 37.4 °F 31.4 °F 33.8 °F 87% 30.21 in 6.2 mi West 8.1 mph - N/A   Partly Cloudy
6:20 AM 39.2 °F 33.0 °F 35.6 °F 87% 30.21 in 6.2 mi West 9.2 mph - N/A   Partly Cloudy
6:50 AM 39.2 °F 34.2 °F 35.6 °F 87% 30.21 in 6.2 mi West 6.9 mph - N/A Rain Light Rain Showers
7:20 AM 42.8 °F 36.6 °F 39.2 °F 87% 30.21 in 6.2 mi SW 11.5 mph - N/A   Mostly Cloudy
7:50 AM 42.8 °F 36.2 °F 39.2 °F 87% 30.21 in 6.2 mi SW 12.7 mph - N/A Rain Light Rain
8:20 AM 44.6 °F 38.8 °F 41.0 °F 87% 30.21 in 6.2 mi SW 11.5 mph - N/A Rain Light Rain
8:50 AM 44.6 °F 38.1 °F 42.8 °F 93% 30.21 in 3.1 mi SW 13.8 mph - N/A Rain Light Rain
9:20 AM 46.4 °F 40.1 °F 42.8 °F 87% 30.21 in 3.7 mi SW 15.0 mph - N/A Rain Light Rain
9:50 AM 44.6 °F 37.8 °F 42.8 °F 93% 30.21 in 5.0 mi SW 15.0 mph - N/A Rain Light Rain
10:20 AM 46.4 °F 40.1 °F 44.6 °F 93% 30.21 in 6.2 mi SW 15.0 mph - N/A Rain Light Rain
10:50 AM 46.4 °F 40.1 °F 44.6 °F 93% 30.21 in 6.2 mi SW 15.0 mph - N/A Rain Light Rain
11:20 AM 46.4 °F 41.5 °F 44.6 °F 93% 30.21 in 6.2 mi SW 10.4 mph - N/A Rain Light Rain
11:50 AM 48.2 °F - 46.4 °F 93% 30.21 in 6.2 mi SW 13.8 mph - N/A Rain Light Rain
12:20 PM 50.0 °F - 46.4 °F 87% 30.21 in 6.2 mi SW 13.8 mph - N/A Rain Light Rain
12:50 PM 50.0 °F - 48.2 °F 94% 30.21 in 6.2 mi SW 13.8 mph - N/A   Overcast
1:20 PM 50.0 °F - 48.2 °F 94% 30.21 in 6.2 mi WSW 12.7 mph - N/A   Overcast
1:50 PM 50.0 °F - 48.2 °F 94% 30.21 in 6.2 mi West 18.4 mph - N/A   Overcast
2:20 PM 50.0 °F - 46.4 °F 87% 30.21 in 6.2 mi West 17.3 mph - N/A   Mostly Cloudy
2:50 PM 50.0 °F - 46.4 °F 87% 30.21 in 6.2 mi WSW 18.4 mph - N/A   Mostly Cloudy
3:20 PM 50.0 °F - 46.4 °F 87% 30.18 in 6.2 mi WSW 20.7 mph - N/A   Mostly Cloudy
3:50 PM 50.0 °F - 46.4 °F 87% 30.21 in 6.2 mi West 18.4 mph - N/A   Mostly Cloudy
4:20 PM 48.2 °F - 44.6 °F 87% 30.21 in 6.2 mi WSW 15.0 mph - N/A   Mostly Cloudy